Location: Valdosta
(30.8330°N, 83.2790°W)
Time: 14:22:54
(UTC-04:00)

Amateur Radio Satellites - All Passes

Search period start: 28 July 2016 13:52
Search period end: 29 July 2016 13:52
Location: Valdosta, 30.8330°N, 83.2790°W

Satellite Date Start Highest point End Downlink Frequencies (MHz)
Time Altitude Azimuth
BUGSAT 1 28 Jul 13:53:40 13:56:42 20° 264° (W) 13:59:48 437.445
SPROUT 28 Jul 13:59:12 14:03:30 70° 283° (WNW) 14:07:47 437.525
ESTCUBE 1 28 Jul 14:03:53 14:06:39 16° 291° (WNW) 14:09:26 437.505/2401.250
Gurwin Techsat 1B 28 Jul 14:04:09 14:08:24 25° 69° (ENE) 14:12:39 435.225
AO-85 28 Jul 14:05:28 14:10:54 88° 297° (WNW) 14:16:10 145.980
Oscar 19 28 Jul 14:11:35 14:16:40 73° 76° (ENE) 14:21:46 437.125/150
CUBEBUG 1 28 Jul 14:12:10 14:15:17 19° 290° (WNW) 14:18:25 437.445
VELOX 1 28 Jul 14:14:16 14:17:39 22° 290° (WNW) 14:21:03 145.980
AIST 1 28 Jul 14:24:49 14:28:56 49° 279° (W) 14:33:04
CUSAT 1 28 Jul 14:47:12 14:49:21 15° 82° (E) 14:51:47 437.405
TISAT 1 28 Jul 14:49:39 14:53:55 85° 286° (WNW) 14:58:09 437.305
AO-7 28 Jul 14:53:23 14:58:54 20° 58° (ENE) 15:04:24 29.400- 29.500
DX 1 28 Jul 14:56:39 14:57:12 10° 294° (WNW) 14:57:46 434.975-435.025
SWISSCUBE 28 Jul 15:29:09 15:33:41 45° 100° (E) 15:38:13 437.505
Cosmos 2499 28 Jul 15:33:41 15:41:20 34° 87° (E) 15:48:52 435.465 / 435.565
Gurwin Techsat 1B 28 Jul 15:43:28 15:48:08 31° 262° (W) 15:52:50 435.225
ITAMSAT 1 28 Jul 15:48:48 15:54:01 89° 94° (E) 15:59:17 435.822/435.867
BEESAT 28 Jul 15:50:12 15:54:57 72° 101° (ESE) 15:59:40 436.000
AO-85 28 Jul 15:50:26 15:51:58 11° 311° (NW) 15:53:30 145.980
GONETS M04 28 Jul 15:50:29 15:58:57 61° 91° (E) 16:07:28
PHONESAT 2.4 28 Jul 15:51:06 15:53:51 31° 145° (SE) 15:56:38 2401.200-2431.200
RS-15 28 Jul 16:00:41 16:12:19 44° 53° (NE) 16:23:40 29.354- 29.394
ITUPSAT 1 28 Jul 16:14:20 16:19:02 62° 285° (WNW) 16:23:43 437.325
MOZHAYETS 4 28 Jul 16:19:57 16:22:34 15° 94° (E) 16:25:09
CUSAT 1 28 Jul 16:28:35 16:31:09 19° 263° (W) 16:34:10 437.405
AO-7 28 Jul 16:42:21 16:50:43 78° 254° (WSW) 16:59:08 29.400- 29.500
DANDE 28 Jul 17:05:35 17:07:33 17° 264° (W) 17:09:45 436.750
SWISSCUBE 28 Jul 17:08:32 17:11:03 14° 293° (WNW) 17:13:34 437.505
SO-50 28 Jul 17:08:55 17:12:25 21° 54° (NE) 17:15:50 436.795
KKS-1 28 Jul 17:10:04 17:14:29 56° 101° (E) 17:18:53 437.445
Cosmos 2499 28 Jul 17:25:45 17:34:06 45° 281° (W) 17:42:22 435.465 / 435.565
HORYU 2 28 Jul 17:26:38 17:30:51 43° 74° (ENE) 17:35:07 437.375
PHONESAT 2.4 28 Jul 17:27:31 17:30:20 32° 339° (NNW) 17:33:09 2401.200-2431.200
CUBESAT XI-V 28 Jul 17:43:29 17:45:52 14° 94° (E) 17:48:16 437.345
STARS 28 Jul 17:44:38 17:49:04 67° 101° (ESE) 17:53:27 437.465
GONETS M04 28 Jul 17:49:44 17:56:12 23° 287° (WNW) 18:02:44
NOAA 15 28 Jul 17:55:08 17:58:45 19° 68° (ENE) 18:02:24 137.62
MOZHAYETS 4 28 Jul 17:55:36 17:59:48 37° 287° (WNW) 18:03:58
RS-15 28 Jul 18:13:13 18:24:52 51° 252° (WSW) 18:36:15 29.354- 29.394
LilacSat-2 28 Jul 18:18:51 18:21:21 17° 71° (ENE) 18:23:51 437.200
NOAA 18 28 Jul 18:27:38 18:32:28 32° 70° (ENE) 18:37:20 137.9125
BRITE-PL 28 Jul 18:32:49 18:36:51 52° 76° (ENE) 18:40:53 437.365/2234.400
BEESAT 3 28 Jul 18:34:13 18:38:06 76° 116° (ESE) 18:42:02 437.485
PCSat 28 Jul 18:38:21 18:42:30 23° 106° (ESE) 18:46:39 145.827
AO-7 28 Jul 18:43:27 18:44:22 10° 268° (W) 18:45:18 29.400- 29.500
BEESAT 2 28 Jul 18:43:38 18:47:22 45° 114° (ESE) 18:51:10 435.950
SO-50 28 Jul 18:48:53 18:52:53 31° 249° (WSW) 18:56:47 436.795
KKS-1 28 Jul 18:49:37 18:50:30 11° 294° (WNW) 18:51:23 437.445
Cubesat XI-IV 28 Jul 18:54:44 19:00:00 58° 74° (ENE) 19:05:16 437.490
PHONESAT 2.4 28 Jul 19:05:39 19:07:24 14° 355° (N) 19:09:10 2401.200-2431.200
HORYU 2 28 Jul 19:05:39 19:07:33 12° 266° (W) 19:09:28 437.375
DOVE 4 28 Jul 19:12:25 19:15:52 24° 71° (ENE) 19:19:27 437.250
CUTE-I 28 Jul 19:17:46 19:23:08 82° 257° (WSW) 19:28:32 437.470
CUBESAT XI-V 28 Jul 19:19:02 19:23:21 41° 286° (WNW) 19:27:41 437.345
GOMX 1 28 Jul 19:26:44 19:30:52 84° 258° (WSW) 19:35:09 467.674
NOAA 15 28 Jul 19:33:17 19:38:11 40° 261° (W) 19:43:06 137.62
ISS 28 Jul 19:43:26 19:44:40 12° 125° (SE) 19:45:55 145.825
STRAND 1 28 Jul 19:49:51 19:53:23 19° 95° (E) 19:56:53 437.568
LilacSat-2 28 Jul 19:52:14 19:55:24 24° 263° (W) 19:58:37 437.200
CANX-2 28 Jul 20:03:03 20:06:21 22° 72° (ENE) 20:09:39 2200.000
YUBILEINY 28 Jul 20:06:06 20:10:12 14° 68° (ENE) 20:14:17 435.215
NOAA 18 28 Jul 20:08:29 20:13:02 26° 263° (W) 20:17:38 137.9125
CUTE 1.7 + AOD 2 28 Jul 20:15:48 20:19:24 27° 73° (ENE) 20:23:00 437.475
PCSat 28 Jul 20:20:38 20:25:36 36° 300° (WNW) 20:30:35 145.827
HO-68 28 Jul 20:22:29 20:29:24 53° 70° (ENE) 20:36:20 435.675
BEESAT 2 28 Jul 20:23:53 20:25:25 12° 308° (NW) 20:26:57 435.950
Cubesat XI-IV 28 Jul 20:37:53 20:40:19 13° 267° (W) 20:42:46 437.490
PHONESAT 2.4 28 Jul 20:42:32 20:44:40 17° 12° (NNE) 20:46:48 2401.200-2431.200
CINEMA 3 28 Jul 20:48:09 20:52:36 89° 57° (ENE) 20:57:18 145.822/145.860
DOVE 4 28 Jul 20:50:21 20:53:30 20° 265° (W) 20:56:45 437.250
O/OREOS (USA 219) 28 Jul 20:51:18 20:55:43 72° 107° (ESE) 21:00:11 437.305
SEEDS 28 Jul 20:51:21 20:55:28 51° 75° (ENE) 20:59:34 437.485
AIST 2 28 Jul 20:57:46 21:01:47 60° 114° (ESE) 21:05:51 435.215
COMPASS 1 28 Jul 21:00:08 21:04:06 43° 75° (ENE) 21:08:04 437.405
FUNcube-1 28 Jul 21:14:42 21:17:46 18° 69° (ENE) 21:20:51 145.935
ZACube-1 28 Jul 21:16:18 21:19:37 20° 70° (ENE) 21:22:58 437.345
ISS 28 Jul 21:17:42 21:20:47 40° 318° (NW) 21:23:52 145.825
UWE-3 28 Jul 21:18:39 21:22:46 34° 72° (ENE) 21:26:57 435.000/436.395/437.385
Cosmos 2491 28 Jul 21:20:41 21:27:57 31° 86° (E) 21:35:12 435.465 / 435.565
AAUSAT CUBESAT 2 28 Jul 21:26:34 21:30:43 76° 77° (ENE) 21:34:52 437.432
STRAND 1 28 Jul 21:27:54 21:32:36 38° 288° (WNW) 21:37:15 437.568
PRISM 28 Jul 21:29:41 21:33:00 24° 97° (E) 21:36:19 437.425
DELFI C3 28 Jul 21:37:38 21:39:21 13° 69° (ENE) 21:41:04 145.870
CANX-2 28 Jul 21:38:40 21:42:02 23° 264° (W) 21:45:26 2200.000
CUBEBUG 2 28 Jul 21:43:50 21:48:22 76° 259° (WSW) 21:53:05 437.445
CUTE 1.7 + AOD 2 28 Jul 21:52:13 21:55:11 18° 265° (W) 21:58:09 437.475
Oscar 11 28 Jul 21:53:34 21:57:49 57° 76° (ENE) 22:02:05 145.826/435.025
YUBILEINY 28 Jul 21:59:11 22:08:04 89° 80° (E) 22:16:52 435.215
HO-68 28 Jul 22:11:52 22:17:17 23° 264° (W) 22:22:45 435.675
HUMSAT D 28 Jul 22:16:07 22:19:09 19° 70° (ENE) 22:22:10 437.325/437.525
PHONESAT 2.4 28 Jul 22:18:29 22:21:33 63° 27° (NNE) 22:24:35 2401.200-2431.200
Cosmos 2504 28 Jul 22:37:52 22:45:35 51° 80° (E) 22:52:44 435.465 / 435.565
COMPASS 1 28 Jul 22:38:59 22:39:48 10° 267° (W) 22:40:37 437.405
AIST 2 28 Jul 22:40:22 22:40:37 10° 310° (NW) 22:40:51 435.215
M-CUBED/EXP-1 PRIME 28 Jul 22:42:59 22:46:39 87° 78° (ENE) 22:50:39 437.505
AO-85 28 Jul 22:44:32 22:47:15 16° 52° (NE) 22:49:50 145.980
FUNcube-1 28 Jul 22:49:40 22:53:41 32° 263° (W) 22:57:48 145.935
TIGRISAT 28 Jul 22:51:18 22:53:56 15° 94° (E) 22:56:32 435.000
ZACube-1 28 Jul 22:51:46 22:55:39 29° 263° (W) 22:59:37 437.345
UWE-3 28 Jul 22:56:19 22:59:14 17° 266° (W) 23:02:13 435.000/436.395/437.385
PRISM 28 Jul 23:05:10 23:08:07 20° 290° (WNW) 23:11:05 437.425
UNISAT 6 28 Jul 23:07:16 23:11:04 26° 96° (E) 23:14:47 437.425
AUBIESAT-1 28 Jul 23:07:37 23:11:14 53° 256° (WSW) 23:15:11 437.475
DELFI C3 28 Jul 23:10:11 23:13:50 34° 261° (W) 23:17:29 145.870
Cosmos 2491 28 Jul 23:16:09 23:24:22 46° 281° (W) 23:32:37 435.465 / 435.565
ESTCUBE 1 28 Jul 23:21:17 23:24:13 17° 69° (ENE) 23:27:08 437.505/2401.250
CUBEBUG 1 28 Jul 23:28:05 23:29:48 12° 68° (ENE) 23:31:30 437.445
VELOX 1 28 Jul 23:31:45 23:33:21 12° 67° (ENE) 23:34:57 145.980
ANTELSAT 28 Jul 23:45:02 23:49:37 75° 100° (E) 23:54:05 437.575/2403.000
HUMSAT D 28 Jul 23:50:51 23:54:31 27° 263° (W) 23:58:13 437.325/437.525
PHONESAT 2.4 28 Jul 23:56:03 23:57:46 14° 219° (SW) 23:59:28 2401.200-2431.200
NANOSAT C BR1 28 Jul 23:57:08 23:57:49 10° 93° (E) 23:58:29 145.865
YUBILEINY 28 Jul 23:59:50 00:03:33 13° 281° (W) 00:07:16 435.215
DUCHIFAT 1 29 Jul 00:00:19 00:01:12 11° 93° (E) 00:02:05 145.980
50 SAT 29 Jul 00:03:30 00:06:37 27° 73° (ENE) 00:09:44 437.505
DX 1 29 Jul 00:08:00 00:11:25 23° 71° (ENE) 00:14:50 434.975-435.025
JUGNU 29 Jul 00:08:02 00:10:54 14° 162° (SSE) 00:13:45 437.505
AISAT 29 Jul 00:13:58 00:18:04 41° 74° (ENE) 00:22:12 437.250
UKube-1 29 Jul 00:18:10 00:21:36 24° 71° (ENE) 00:25:01 .
QB50P1 29 Jul 00:18:11 00:21:32 22° 96° (E) 00:24:51 145.935-145.965
AO-85 29 Jul 00:24:03 00:27:46 32° 249° (WSW) 00:31:16 145.980
POPSAT HIP 1 29 Jul 00:24:37 00:28:12 26° 97° (E) 00:31:46 437.405
TIGRISAT 29 Jul 00:26:29 00:30:42 37° 287° (WNW) 00:34:48 435.000
Cosmos 2504 29 Jul 00:32:29 00:38:16 23° 277° (W) 00:43:50 435.465 / 435.565
AIST 1 29 Jul 00:37:51 00:41:15 22° 78° (ENE) 00:44:40
UNISAT 6 29 Jul 00:44:03 00:47:35 22° 290° (WNW) 00:51:03 437.425
QB50P2 29 Jul 00:45:31 00:49:43 53° 100° (E) 00:53:52 145.880/145.840
SPROUT 29 Jul 00:47:11 00:51:11 41° 74° (ENE) 00:55:13 437.525
JAS-2 29 Jul 00:47:48 00:51:16 17° 96° (E) 00:54:55 435.910
POLYITAN 1 29 Jul 00:48:09 00:52:22 54° 100° (E) 00:56:32 437.675
ESTCUBE 1 29 Jul 00:56:41 01:00:43 33° 262° (W) 01:04:45 437.505/2401.250
CUBEBUG 1 29 Jul 01:01:33 01:05:38 43° 261° (W) 01:09:46 437.445
VELOX 1 29 Jul 01:05:08 01:09:20 46° 260° (W) 01:13:34 145.980
NANOSAT C BR1 29 Jul 01:29:37 01:33:43 46° 285° (WNW) 01:37:46 145.865
DUCHIFAT 1 29 Jul 01:32:59 01:37:03 45° 285° (WNW) 01:41:05 145.980
TISAT 1 29 Jul 01:36:00 01:39:44 32° 73° (ENE) 01:43:31 437.305
50 SAT 29 Jul 01:38:29 01:40:13 13° 265° (W) 01:41:57 437.505
BUGSAT 1 29 Jul 01:39:30 01:43:46 84° 104° (ESE) 01:48:00 437.445
DX 1 29 Jul 01:44:06 01:47:28 22° 263° (W) 01:50:51 434.975-435.025
AISAT 29 Jul 01:52:50 01:54:40 12° 266° (W) 01:56:30 437.250
QB50P1 29 Jul 01:53:48 01:57:09 23° 289° (WNW) 02:00:30 145.935-145.965
UKube-1 29 Jul 01:54:12 01:57:30 21° 263° (W) 02:00:49 .
JUGNU 29 Jul 01:54:37 01:59:20 24° 171° (S) 02:04:04 437.505
POPSAT HIP 1 29 Jul 02:00:41 02:03:45 20° 290° (WNW) 02:06:49 437.405
GONETS M04 29 Jul 02:08:46 02:15:18 22° 72° (ENE) 02:21:48
AIST 1 29 Jul 02:15:22 02:18:41 21° 271° (W) 02:22:00
SPROUT 29 Jul 02:25:44 02:27:15 12° 266° (W) 02:28:48 437.525
Gurwin Techsat 1B 29 Jul 02:26:41 02:29:39 15° 94° (E) 02:32:37 435.225
SRMSAT 29 Jul 02:28:22 02:31:16 14° 163° (SSE) 02:34:09 437.500
Oscar 19 29 Jul 02:28:49 02:33:40 40° 99° (E) 02:38:31 437.125/150
SWISSCUBE 29 Jul 02:30:29 02:34:34 28° 71° (ENE) 02:38:38 437.505
JAS-2 29 Jul 02:31:11 02:36:24 49° 286° (WNW) 02:42:10 435.910
BEESAT 29 Jul 02:51:07 02:55:38 43° 73° (ENE) 03:00:09 436.000
TISAT 1 29 Jul 03:13:06 03:15:26 14° 265° (W) 03:17:45 437.305
ITUPSAT 1 29 Jul 03:15:14 03:20:02 81° 76° (ENE) 03:24:51 437.325
Cosmos 2499 29 Jul 03:24:22 03:31:43 50° 80° (E) 03:38:36 435.465 / 435.565
JUGNU 29 Jul 03:42:50 03:47:52 28° 181° (S) 03:52:54 437.505
CUSAT 1 29 Jul 03:44:38 03:48:32 30° 97° (E) 03:51:39 437.405
ISS 29 Jul 03:50:14 03:52:17 16° 36° (NE) 03:54:20 145.825
KKS-1 29 Jul 04:03:11 04:06:49 26° 71° (ENE) 04:10:30 437.445
GONETS M04 29 Jul 04:03:55 04:12:34 63° 269° (W) 04:21:15
Gurwin Techsat 1B 29 Jul 04:04:40 04:09:47 50° 287° (WNW) 04:14:53 435.225
ITAMSAT 1 29 Jul 04:07:21 04:12:23 50° 100° (E) 04:17:23 435.822/435.867
SWISSCUBE 29 Jul 04:08:34 04:12:16 22° 264° (W) 04:16:00 437.505
Oscar 19 29 Jul 04:09:04 04:12:37 19° 292° (WNW) 04:16:11 437.125/150
SRMSAT 29 Jul 04:15:10 04:19:51 24° 171° (S) 04:24:32 437.500
DANDE 29 Jul 04:24:27 04:29:56 37° 96° (E) 04:34:09 436.750
BEESAT 29 Jul 04:30:58 04:33:32 14° 265° (W) 04:36:07 436.000
BEESAT 3 29 Jul 04:33:52 04:37:48 66° 244° (WSW) 04:41:41 437.485
STARS 29 Jul 04:36:09 04:39:56 29° 72° (ENE) 04:43:43 437.465
BEESAT 2 29 Jul 04:44:00 04:48:00 77° 63° (ENE) 04:51:59 435.950
AO-7 29 Jul 04:50:24 04:58:30 52° 103° (ESE) 05:06:30 29.400- 29.500
MOZHAYETS 4 29 Jul 04:51:14 04:55:52 78° 258° (WSW) 05:00:30
PCSat 29 Jul 05:13:28 05:18:47 56° 63° (ENE) 05:24:04 145.827
Cosmos 2499 29 Jul 05:18:43 05:24:11 22° 276° (W) 05:29:27 435.465 / 435.565
HORYU 2 29 Jul 05:24:49 05:26:50 13° 94° (E) 05:28:50 437.375
ISS 29 Jul 05:25:46 05:28:49 37° 230° (SW) 05:31:50 145.825
CUSAT 1 29 Jul 05:29:31 05:30:15 10° 279° (W) 05:30:58 437.405
JUGNU 29 Jul 05:31:54 05:36:22 22° 191° (S) 05:40:49 437.505
KKS-1 29 Jul 05:39:57 05:43:18 21° 264° (W) 05:46:40 437.445
ITAMSAT 1 29 Jul 05:48:27 05:51:23 15° 294° (WNW) 05:54:18 435.822/435.867
SRMSAT 29 Jul 06:03:32 06:08:31 28° 182° (S) 06:13:30 437.500
DANDE 29 Jul 06:08:48 06:12:26 17° 279° (W) 06:15:32 436.750
STARS 29 Jul 06:13:13 06:16:14 18° 264° (W) 06:19:17 437.465
CUBESAT XI-V 29 Jul 06:16:16 06:20:54 82° 259° (WSW) 06:25:30 437.345
RS-15 29 Jul 06:16:57 06:27:20 44° 107° (ESE) 06:38:12 29.354- 29.394
NOAA 15 29 Jul 06:17:52 06:18:39 10° 93° (E) 06:19:25 137.62
BRITE-PL 29 Jul 06:41:47 06:46:13 30° 98° (E) 06:50:55 437.365/2234.400
AO-7 29 Jul 06:43:55 06:50:47 30° 298° (WNW) 06:57:37 29.400- 29.500
NOAA 18 29 Jul 06:55:41 06:59:49 21° 96° (E) 07:03:54 137.9125
PCSat 29 Jul 06:58:51 07:01:37 14° 256° (WSW) 07:04:23 145.827
HORYU 2 29 Jul 06:59:19 07:03:31 41° 287° (WNW) 07:07:41 437.375
STRAND 1 29 Jul 07:01:04 07:04:11 16° 67° (ENE) 07:07:18 437.568
AIST 2 29 Jul 07:02:17 07:06:27 73° 244° (WSW) 07:10:35 435.215
O/OREOS (USA 219) 29 Jul 07:06:39 07:11:07 54° 70° (ENE) 07:15:35 437.305
DOVE 4 29 Jul 07:17:14 07:19:48 14° 93° (E) 07:22:22 437.250
SO-50 29 Jul 07:17:27 07:21:22 24° 110° (ESE) 07:25:17 436.795
Cubesat XI-IV 29 Jul 07:17:51 07:22:45 36° 99° (E) 07:27:36 437.490
JUGNU 29 Jul 07:23:18 07:24:47 11° 199° (SSW) 07:26:15 437.505
LilacSat-2 29 Jul 07:30:16 07:34:02 50° 100° (E) 07:37:44 437.200
GOMX 1 29 Jul 07:32:46 07:37:49 47° 99° (E) 07:43:02 467.674
CUTE-I 29 Jul 07:40:30 07:45:47 64° 102° (ESE) 07:51:02 437.470
SRMSAT 29 Jul 07:52:47 07:57:09 22° 191° (SSW) 08:01:33 437.500
NOAA 15 29 Jul 07:53:32 07:58:46 68° 285° (WNW) 08:04:00 137.62
HO-68 29 Jul 08:00:02 08:02:15 11° 92° (E) 08:04:28 435.675
BRITE-PL 29 Jul 08:20:26 08:24:30 25° 288° (WNW) 08:28:48 437.365/2234.400
RS-15 29 Jul 08:28:45 08:39:33 47° 306° (NW) 08:51:00 29.354- 29.394
NOAA 18 29 Jul 08:35:24 08:40:30 39° 289° (WNW) 08:45:34 137.9125
STRAND 1 29 Jul 08:37:59 08:42:55 46° 260° (W) 08:47:52 437.568
SEEDS 29 Jul 08:42:28 08:44:21 13° 94° (E) 08:46:13 437.485
CINEMA 3 29 Jul 08:48:27 08:53:02 35° 97° (E) 08:57:30 145.822/145.860
COMPASS 1 29 Jul 08:51:16 08:51:52 10° 93° (E) 08:52:28 437.405
DOVE 4 29 Jul 08:52:32 08:57:40 57° 284° (WNW) 09:02:51 437.250
SO-50 29 Jul 08:57:23 09:01:40 30° 303° (WNW) 09:05:57 436.795
Cubesat XI-IV 29 Jul 08:58:32 09:02:31 22° 292° (WNW) 09:06:29 437.490
YUBILEINY 29 Jul 08:59:51 09:05:37 20° 82° (E) 09:11:24 435.215
GOMX 1 29 Jul 09:12:08 09:15:30 18° 291° (WNW) 09:18:56 467.674
AAUSAT CUBESAT 2 29 Jul 09:15:20 09:18:04 17° 95° (E) 09:20:48 437.432
UWE-3 29 Jul 09:16:45 09:17:34 10° 92° (E) 09:18:21 435.000/436.395/437.385
CUTE-I 29 Jul 09:23:01 09:25:13 13° 295° (WNW) 09:27:25 437.470
CANX-2 29 Jul 09:28:03 09:32:16 88° 282° (WNW) 09:36:27 2200.000
Cosmos 2491 29 Jul 09:32:34 09:41:19 71° 83° (E) 09:50:05 435.465 / 435.565
CUBEBUG 2 29 Jul 09:40:38 09:44:53 35° 97° (E) 09:49:01 437.445
CUTE 1.7 + AOD 2 29 Jul 09:41:03 09:45:14 70° 284° (WNW) 09:49:24 437.475
HO-68 29 Jul 09:43:23 09:50:37 89° 280° (W) 09:57:47 435.675
SRMSAT 29 Jul 09:44:34 09:45:43 11° 199° (SSW) 09:46:53 437.500
Oscar 11 29 Jul 09:47:30 09:50:08 16° 95° (E) 09:52:47 145.826/435.025
PRISM 29 Jul 09:47:59 09:51:59 57° 259° (W) 09:55:59 437.425
UNISAT 6 29 Jul 10:02:11 10:04:16 13° 67° (ENE) 10:06:22 437.425
SEEDS 29 Jul 10:16:19 10:20:08 35° 286° (WNW) 10:23:55 437.485
COMPASS 1 29 Jul 10:23:40 10:27:34 43° 285° (WNW) 10:31:28 437.405
CINEMA 3 29 Jul 10:26:13 10:29:50 20° 291° (WNW) 10:33:24 145.822/145.860
M-CUBED/EXP-1 PRIME 29 Jul 10:29:12 10:31:11 12° 97° (E) 10:33:08 437.505
ANTELSAT 29 Jul 10:38:13 10:42:22 34° 72° (ENE) 10:46:34 437.575/2403.000
FUNcube-1 29 Jul 10:42:48 10:47:14 74° 101° (E) 10:51:31 145.935
ZACube-1 29 Jul 10:45:03 10:49:30 86° 99° (E) 10:53:49 437.345
UWE-3 29 Jul 10:49:51 10:54:16 51° 285° (WNW) 10:58:33 435.000/436.395/437.385
AAUSAT CUBESAT 2 29 Jul 10:50:04 10:53:30 26° 287° (WNW) 10:56:55 437.432
RS-15 29 Jul 10:51:31 10:56:18 13° 335° (NNW) 11:01:09 29.354- 29.394
AUBIESAT-1 29 Jul 10:52:06 10:55:23 19° 99° (E) 10:58:35 437.475
YUBILEINY 29 Jul 10:52:46 11:01:28 68° 277° (W) 11:10:17 435.215
DELFI C3 29 Jul 10:52:52 10:56:35 40° 99° (E) 11:00:17 145.870
Cosmos 2504 29 Jul 11:07:23 11:15:50 53° 90° (E) 11:24:19 435.465 / 435.565
CUBEBUG 2 29 Jul 11:18:09 11:21:09 17° 291° (WNW) 11:24:06 437.445
TIGRISAT 29 Jul 11:18:38 11:23:14 85° 258° (WSW) 11:27:57 435.000
Oscar 11 29 Jul 11:22:28 11:26:17 31° 287° (WNW) 11:30:03 145.826/435.025
Cosmos 2491 29 Jul 11:31:40 11:37:11 19° 278° (W) 11:42:44 435.465 / 435.565
QB50P2 29 Jul 11:33:32 11:36:37 20° 70° (ENE) 11:39:44 145.880/145.840
HO-68 29 Jul 11:34:11 11:37:17 13° 301° (WNW) 11:40:23 435.675
UNISAT 6 29 Jul 11:36:01 11:40:28 49° 261° (W) 11:45:01 437.425
POLYITAN 1 29 Jul 11:36:07 11:39:15 20° 70° (ENE) 11:42:24 437.675
HUMSAT D 29 Jul 11:39:05 11:43:14 71° 100° (E) 11:47:19 437.325/437.525
M-CUBED/EXP-1 PRIME 29 Jul 12:01:17 12:05:52 52° 290° (WNW) 12:10:21 437.505
AISAT 29 Jul 12:11:21 12:13:15 12° 94° (E) 12:15:09 437.250
NANOSAT C BR1 29 Jul 12:15:49 12:19:58 59° 76° (ENE) 12:24:09 145.865
ANTELSAT 29 Jul 12:15:58 12:19:04 18° 266° (W) 12:22:13 437.575/2403.000
DUCHIFAT 1 29 Jul 12:18:54 12:23:02 60° 76° (ENE) 12:27:14 145.980
BUGSAT 1 29 Jul 12:24:14 12:27:38 26° 72° (ENE) 12:31:06 437.445
AUBIESAT-1 29 Jul 12:25:38 12:29:48 34° 292° (WNW) 12:33:53 437.475
DELFI C3 29 Jul 12:30:10 12:31:01 11° 292° (WNW) 12:31:52 145.870
JAS-2 29 Jul 12:38:04 12:43:34 36° 72° (ENE) 12:48:34 435.910
QB50P1 29 Jul 12:39:39 12:43:49 62° 259° (WSW) 12:48:03 145.935-145.965
SPROUT 29 Jul 12:40:55 12:42:08 11° 93° (E) 12:43:22 437.525
POPSAT HIP 1 29 Jul 12:46:25 12:50:32 52° 260° (W) 12:54:42 437.405
AO-85 29 Jul 12:51:56 12:56:16 25° 110° (ESE) 13:00:31 145.980
ESTCUBE 1 29 Jul 12:53:58 12:58:27 78° 102° (ESE) 13:02:57 437.505/2401.250
CUBEBUG 1 29 Jul 12:55:12 12:59:30 50° 100° (E) 13:03:47 437.445
VELOX 1 29 Jul 13:00:24 13:04:43 48° 100° (E) 13:09:01 145.980
Cosmos 2504 29 Jul 13:02:04 13:09:24 29° 285° (WNW) 13:16:48 435.465 / 435.565
AIST 1 29 Jul 13:02:14 13:04:54 16° 88° (E) 13:07:34
QB50P2 29 Jul 13:08:42 13:12:13 25° 263° (W) 13:15:45 145.880/145.840
50 SAT 29 Jul 13:10:15 13:13:50 75° 103° (ESE) 13:17:24 437.505
POLYITAN 1 29 Jul 13:11:22 13:14:51 25° 263° (W) 13:18:22 437.675
DX 1 29 Jul 13:36:26 13:40:49 86° 287° (WNW) 13:45:12 434.975-435.025
Oscar 19 29 Jul 13:40:29 13:45:01 33° 71° (ENE) 13:49:35 437.125/150
Gurwin Techsat 1B 29 Jul 13:42:58 13:45:52 15° 66° (ENE) 13:48:46 435.225
